STARLINK-1576 (46040 NORAD) Tracking and Keplerian Element Data

This shows tracking and keplerian element data for the satellite.

Feedback or suggestion? Click here.




ElementValue
Catalog46040
NameSTARLINK-1576
Epoch Orbit1875
Epoch Day339.10150441
Epoch Year2020
RAAN112.9473
Inclination53.0036
Eccentricity0.0001988
Argument of Perigee95.8352
Mean Anonmoly264.2862
Mean Motion15.05593984
Decay Rate1.627E-05
L11 46040U 20055P 20339.10150441 .00001627 00000-0 13076-3 0 9995
L22 46040 53.0036 112.9473 0001988 95.8352 264.2862 15.05593984 18758

Live tracking and technical data element details for STARLINK-1576 (NORAD 46040). STARLINK-1576 can be tracked NOW for your location showing map with azimuth and elevation plus other details from your city location.

Track the satellite on the map from your city or location and see movement details for azimuth, elevation, latitude, longitude, range, height, and movement on the map or in text.







IsCatalogInMostPopularTable: catalog: 46040, numindb: 26
Update: records affected: 1



GetName: 46040 STARLINK-1576

Hit Count: updated at: Sat, 05 Dec 2020 05:05:22 GMT